Regional Weather Roundup
Issued by NWS Northern Indiana

Home | Current Version | Previous Version | Text Only | Print | Product List | Glossary On
Versions: 1 2 3 4 5 6 7 8 9 10 11 12 13 14 15 16 17 18 19 20 21 22 23 24 25 26 27 28 29 30 31 32 33 34 35 36 37 38 39 40 41 42 43 44 45 46 47 48 49 50
000
ASUS43 KIWX 281100
RWRIWX

KIWX WEATHER ROUNDUP
NATIONAL WEATHER SERVICE NORTHERN INDIANA
700 AM EDT SUN MAY 28 2017

NOTE: "FAIR" INDICATES FEW OR NO CLOUDS BELOW 12,000 FEET WITH NO
SIGNIFICANT WEATHER AND/OR OBSTRUCTIONS TO VISIBILITY.

* THESE STATIONS ARE NOT UNDER NWS QUALITY CONTROL. THEY ALSO MAY NOT
  REPORT WEATHER SUCH AS PRECIPITATION OR FOG.

INZ001>027-281200-
NORTHERN INDIANA

CITY           SKY/WX    TMP DP  RH WIND       PRES   REMARKS
GARY*          CLOUDY    55  54  94 CALM      29.74F
MICHIGAN CITY* CLOUDY    54  54 100 CALM      29.74F FOG
SOUTH BEND     CLOUDY    58  57  97 E3        29.75S
GOSHEN         CLOUDY    58  52  80 E6        29.75S
MONTICELLO*    MOCLDY    60  59  96 NE3       29.72S FOG
WARSAW*        CLOUDY    55  54  94 CALM      29.75S
ANGOLA*        CLEAR     57  46  67 CALM      29.77S
FORT WAYNE     CLOUDY    59  54  83 E7        29.74F
PERU/GRISSOM   PTCLDY    61  61 100 E5        29.73S

$$
INZ028>050-281200-
CENTRAL INDIANA

CITY           SKY/WX    TMP DP  RH WIND       PRES   REMARKS
LAFAYETTE      MOCLDY    60  60 100 CALM      29.72S FOG
KOKOMO*        CLOUDY    60  59  96 E5        29.74F FOG
MUNCIE*        CLOUDY    62  60  93 E3        29.73F FOG
INDIANAPOLIS   CLOUDY    63  62  97 S7        29.73F FOG

$$
MIZ043>046-050>051-056>058-064>065-071>073-077>080-281200-
SOUTHWEST LOWER MICHIGAN

CITY           SKY/WX    TMP DP  RH WIND       PRES   REMARKS
BATTLE CREEK   CLOUDY    59  55  87 E5        29.78F
BENTON HARBOR  CLOUDY    57  55  93 SE5       29.74F FOG
COLDWATER*     PTCLDY    57  55  92 E3        29.78R
HILLSDALE*     MOCLDY    54  52  94 E6        29.77F
HOLLAND        CLOUDY    62  57  83 E6        29.75F
GRAND RAPIDS   CLOUDY    61  58  90 SE7       29.76F
KALAMAZOO      CLOUDY    56  53  90 CALM      29.79R
STURGIS*       MOCLDY    57  54  88 E5        29.77R
THREE RIVERS*  FAIR      57  57  99 CALM      29.77S

$$
OHZ001>008-015>018-024>025-281200-
NORTHWEST OHIO

CITY           SKY/WX    TMP DP  RH WIND       PRES   REMARKS
DEFIANCE       PTCLDY    58  53  84 NE5       29.76F
FINDLAY        CLEAR     61  54  77 E6        29.76S
TOLEDO EXPRESS MOCLDY    57  57 100 E3        29.77F
TOLEDO METCALF MOCLDY    62  58  86 E6        29.80R
LIMA           PTCLDY    62  59  90 E5        29.76R

$$
AND FOR LAKE MICHIGAN COASTAL AND OPEN LAKE BUOY OBSERVATIONS

STATION/POSITION TEMP    WIND        PRES    VSBY  WAVE
                 AIR SEA DIR/SP/G                  HT/PER
                 (F)     (DEG/KT/KT) (MB)    (MI)  (FT/S)
CALUMET HARBOR    55     350/  2/  2 1006.5F
MICHIGAN CITY     62     110/  6/  8   N/A
BURNS HARBOR      66     130/  9/ 13 1007.1F
SOUTH LAKE BUOY   54 49  340/  4/  6 1007.6          0
4 MI NW BRIDGMAN  60 58  150/  6/  8 1007.2F         0
MICHIGAN CITY     58 54  110/  2/  4   N/A           0

$$
&&




USA.gov is the U.S. government's official web portal to all federal, state and local government web resources and services.